Weather History for Lawrence, MA

Change the Weather History Date:

Sunday, September 23, 2012

  Actual Average Record
Temperature  
Mean Temperature 60 °F -  
Max Temperature 71 °F 71 °F 89 °F (1970)
Min Temperature 48 °F 49 °F 37 °F (1929)
Degree Days  
Heating Degree Days 4    
Growing Degree Days 10 (Base 50)    
Moisture  
Dew Point 50 °F    
Average Humidity 66    
Maximum Humidity 94    
Minimum Humidity 30    
Precipitation  
Precipitation 0.10 in - - ()
Sea Level Pressure  
Sea Level Pressure 29.94 in    
Wind  
Wind Speed 7 mph (West)    
Max Wind Speed 15 mph    
Max Gust Speed 23 mph    
Visibility 10 miles    
Events Rain    
Averages and records for this station are not official NWS values.
T = Trace of Precipitation, MM = Missing Value Source: NWS Daily Summary

Daily Weather History Graph

Daily Weather History Graph

Search for Another Location

Airport:

Trip Planner

Search our weather history database for the weather conditions in past years. The results will help you decide how hot, cold, wet, or windy it might be!

Date:

Astronomy

Sep. 23, 2012 Rise Set
Actual Time 6:33 AM EDT 6:39 PM EDT
Civil Twilight 6:05 AM EDT 7:07 PM EDT
Nautical Twilight 5:32 AM EDT 7:40 PM EDT
Astronomical Twilight 4:58 AM EDT 8:13 PM EDT
Moon 2:45 PM EDT (9/23) No Moon Set
Length of Visible Light 13h 02m
Length of Day
12h 05m
First Quarter, 60% of the Moon is Illuminated
Sep 23
First Quarter
Sep 29
Full
Oct 8
Last Quarter
Oct 15
New
Oct 21
First Quarter

Hourly Weather History & Observations

Time (EDT) Temp. Dew Point Humidity Pressure Visibility Wind Dir Wind Speed Gust Speed Precip Events Conditions
12:02 AM 64.4 °F 59.0 °F 83% 29.84 in 10.0 mi Variable 3.5 mph - N/A   Overcast
12:54 AM 66.9 °F 61.0 °F 81% 29.81 in 10.0 mi Variable 4.6 mph - N/A   Overcast
1:46 AM 66.2 °F 62.6 °F 88% 29.82 in 6.0 mi SSW 10.4 mph - 0.07 in Rain Light Rain
1:54 AM 66.0 °F 62.1 °F 87% 29.82 in 9.0 mi SW 9.2 mph - 0.08 in Rain Light Rain
2:54 AM 64.9 °F 62.1 °F 90% 29.82 in 10.0 mi SW 8.1 mph - 0.02 in   Overcast
3:14 AM 64.4 °F 62.6 °F 94% 29.82 in 10.0 mi WSW 6.9 mph - 0.00 in Rain Light Rain
3:54 AM 64.0 °F 61.0 °F 90% 29.83 in 10.0 mi WSW 6.9 mph - 0.00 in   Overcast
4:12 AM 64.4 °F 60.8 °F 88% 29.84 in 10.0 mi WSW 6.9 mph - N/A   Overcast
4:54 AM 63.0 °F 59.0 °F 87% 29.85 in 10.0 mi West 3.5 mph - N/A   Scattered Clouds
5:54 AM 63.0 °F 60.1 °F 90% 29.86 in 10.0 mi Calm Calm - N/A   Mostly Cloudy
6:54 AM 62.1 °F 59.0 °F 90% 29.90 in 10.0 mi WSW 4.6 mph - N/A   Mostly Cloudy
7:54 AM 62.1 °F 57.0 °F 84% 29.92 in 10.0 mi WNW 6.9 mph - N/A   Partly Cloudy
8:54 AM 62.1 °F 53.1 °F 72% 29.95 in 10.0 mi WNW 9.2 mph 17.3 mph N/A   Partly Cloudy
9:54 AM 64.0 °F 48.0 °F 56% 29.96 in 10.0 mi NW 15.0 mph 23.0 mph N/A   Clear
10:54 AM 64.9 °F 44.1 °F 47% 29.98 in 10.0 mi WNW 10.4 mph 18.4 mph N/A   Clear
11:54 AM 66.9 °F 43.0 °F 42% 29.98 in 10.0 mi WNW 9.2 mph 20.7 mph N/A   Clear
12:54 PM 68.0 °F 43.0 °F 40% 29.98 in 10.0 mi NW 11.5 mph - N/A   Clear
1:54 PM 69.1 °F 43.0 °F 39% 29.97 in 10.0 mi West 10.4 mph - N/A   Clear
2:54 PM 70.0 °F 37.0 °F 30% 29.97 in 10.0 mi NNW 10.4 mph - N/A   Clear
3:54 PM 70.0 °F 39.9 °F 33% 29.98 in 10.0 mi WNW 10.4 mph - N/A   Clear
4:54 PM 68.0 °F 37.9 °F 33% 29.99 in 10.0 mi WNW 13.8 mph 19.6 mph N/A   Clear
5:54 PM 66.0 °F 39.0 °F 37% 30.01 in 10.0 mi WNW 5.8 mph - N/A   Clear
6:54 PM 63.0 °F 39.9 °F 43% 30.03 in 10.0 mi West 5.8 mph - N/A   Clear
7:54 PM 60.1 °F 41.0 °F 49% 30.06 in 10.0 mi WNW 5.8 mph - N/A   Clear
8:54 PM 57.9 °F 42.1 °F 56% 30.08 in 10.0 mi NW 5.8 mph - N/A   Clear
9:54 PM 55.0 °F 43.0 °F 64% 30.10 in 10.0 mi Calm Calm - N/A   Clear
10:54 PM 51.1 °F 43.0 °F 74% 30.10 in 10.0 mi North - - N/A   Clear
11:54 PM 48.9 °F 43.0 °F 80% 30.11 in 10.0 mi SSW 3.5 mph - N/A   Clear